DJ3OW-13 Weather Reports


Display with metric or nautical units.
time (UTC)temp
F
wind
direction
speed
MPH
gust
MPH
rain 1hr
in
rain 24hr
in
rain mn
in
humidity
%
barometer
mb
20260510091051 62 3 1.0 2.0 0.00 0.00 0.00 71 1015.6
20260510090109 61 12 1.0 2.0 0.00 0.00 0.00 71 1015.6
20260510085047 60 15 1.0 2.0 0.00 0.00 0.00 73 1015.7
20260510084045 60 0 1.0 4.0 0.00 0.00 0.00 74 1015.7
20260510083043 59 0 1.0 2.0 0.00 0.00 0.00 75 1015.7
20260510082121 59 0 1.0 2.0 0.00 0.00 0.00 74 1015.7
20260510081039 58 0 1.0 4.0 0.00 0.00 0.00 75 1015.8
20260510080037 58 3 1.0 2.0 0.00 0.00 0.00 75 1015.9
20260510075035 57 0 1.0 2.0 0.00 0.00 0.00 75 1015.8
20260510074053 57 23 0.0 2.0 0.00 0.00 0.00 76 1015.8
20260510073051 56 23 0.0 2.0 0.00 0.00 0.00 77 1016.0
20260510072029 54 23 0.0 2.0 0.00 0.00 0.00 79 1016.0
20260510071027 54 23 0.0 2.0 0.00 0.00 0.00 80 1016.1
20260510070025 53 23 1.0 4.0 0.00 0.00 0.00 81 1016.1
20260510065023 52 23 0.0 2.0 0.00 0.00 0.00 85 1016.0
20260510064021 51 23 1.0 2.0 0.00 0.00 0.00 86 1016.0
20260510063019 50 0.0 2.0 0.00 0.00 0.00 87 1015.9
20260510062017 49 0.0 0.0 0.00 0.00 0.00 88 1016.0
20260510061015 48 0.0 0.0 0.00 0.00 0.00 91 1016.0
20260510060113 47 0.0 0.0 0.00 0.00 0.00 92 1016.1
20260510055111 46 0.0 0.0 0.00 0.00 0.00 95 1016.1
20260510054109 45 0.0 0.0 0.00 0.00 0.00 96 1016.1
20260510053107 45 0.0 0.0 0.00 0.00 0.00 96 1016.0
20260510052105 44 0.0 0.0 0.00 0.00 0.00 96 1016.1
20260510051123 44 45 0.0 2.0 0.00 0.00 0.00 97 1016.1
20260510050101 43 0.0 0.0 0.00 0.00 0.00 97 1016.2
20260510045059 43 0.0 0.0 0.00 0.00 0.00 96 1016.2
20260510044117 42 0.0 0.0 0.00 0.00 0.00 96 1016.3
20260510043055 42 0.0 0.0 0.00 0.00 0.00 96 1016.4
20260510042053 42 0.0 0.0 0.00 0.00 0.00 96 1016.4
20260510041051 42 0.0 0.0 0.00 0.00 0.00 96 1016.3
20260510040049 42 0.0 0.0 0.00 0.00 0.00 96 1016.4
20260510035107 42 0.0 0.0 0.00 0.00 0.00 96 1016.4
20260510034045 42 0.0 2.0 0.00 0.00 0.00 96 1016.4
20260510033043 43 0.0 0.0 0.00 0.00 0.00 96 1016.5
20260510032101 42 0.0 0.0 0.00 0.00 0.00 95 1016.6
20260510031059 42 0.0 0.0 0.00 0.00 0.00 95 1016.6
20260510030037 42 0.0 0.0 0.00 0.00 0.00 94 1016.7
20260510025035 42 0.0 2.0 0.00 0.00 0.00 94 1016.6
20260510024033 43 45 0.0 2.0 0.00 0.00 0.00 94 1016.7
20260510023030 43 0.0 0.0 0.00 0.00 0.00 93 1016.8
20260510022029 44 0.0 0.0 0.00 0.00 0.00 93 1016.8
20260510021027 44 0.0 0.0 0.00 0.00 0.00 92 1017.0
20260510020025 44 0.0 0.0 0.00 0.00 0.00 91 1017.1
20260510015103 45 0.0 0.0 0.00 0.00 0.00 90 1017.2
20260510014021 46 45 0.0 2.0 0.00 0.00 0.00 89 1017.3
20260510013019 46 45 1.0 2.0 0.00 0.00 0.00 91 1017.4
20260510012017 45 45 1.0 2.0 0.00 0.00 0.00 93 1017.4
20260510011115 44 23 0.0 2.0 0.00 0.00 0.00 92 1017.6
20260510010153 46 23 0.0 2.0 0.00 0.00 0.00 89 1017.6
20260510005111 47 45 0.0 2.0 0.00 0.00 0.00 88 1017.6
20260510004109 47 45 1.0 2.0 0.00 0.00 0.00 88 1017.6
20260510003106 47 45 0.0 2.0 0.00 0.00 0.00 89 1017.8
20260510002104 47 45 1.0 2.0 0.00 0.00 0.00 89 1018.0
20260510001103 47 45 1.0 2.0 0.00 0.00 0.00 89 1018.1
20260510000101 47 0.0 0.0 0.00 0.00 0.00 89 1018.5
20260509235059 47 45 0.0 2.0 0.00 0.00 0.00 90 1018.3
20260509234116 47 68 0.0 2.0 0.00 0.00 0.00 92 1018.4
20260509233055 47 68 0.0 2.0 0.00 0.00 0.00 95 1018.6
20260509232052 46 68 0.0 2.0 0.00 0.00 0.00 95 1018.8
20260509231050 46 0.0 0.0 0.00 0.00 0.00 95 1018.8
20260509230048 46 0.0 0.0 0.00 0.00 0.00 95 1018.9
20260509225047 46 0.0 2.0 0.00 0.00 0.00 94 1019.1
20260509224044 47 0.0 0.0 0.00 0.00 0.00 94 1019.0
20260509223102 47 0.0 0.0 0.00 0.00 0.00 94 1019.0
20260509222040 47 0.0 2.0 0.00 0.00 0.00 93 1019.0
20260509221038 48 0.0 2.0 0.00 0.00 0.00 93 1019.3
20260509220036 48 68 0.0 2.0 0.00 0.00 0.00 93 1019.3
20260509215114 48 0.0 2.0 0.00 0.00 0.00 93 1019.4
20260509214032 48 0.0 0.0 0.00 0.00 0.00 93 1019.4
20260509213030 48 0.0 0.0 0.00 0.00 0.00 93 1019.5
20260509212028 49 0.0 0.0 0.00 0.00 0.00 92 1019.5
20260509211026 49 68 0.0 2.0 0.00 0.00 0.00 92 1019.6
20260509210024 50 0.0 0.0 0.00 0.00 0.00 91 1019.5
20260509205022 50 0.0 0.0 0.00 0.00 0.00 90 1019.7
20260509204040 51 0.0 0.0 0.00 0.00 0.00 90 1019.8
20260509203018 51 0.0 0.0 0.00 0.00 0.00 90 1019.8
20260509202016 51 68 1.0 2.0 0.00 0.00 0.00 90 1019.9
20260509201114 51 0.0 0.0 0.00 0.00 0.00 90 1019.8
20260509200112 51 0.0 0.0 0.00 0.00 0.00 88 1019.7
20260509195150 51 0.0 0.0 0.00 0.00 0.00 86 1019.7
20260509194148 52 0.0 0.0 0.00 0.00 0.00 84 1019.6
20260509193106 53 0.0 0.0 0.00 0.00 0.00 82 1019.6
20260509192104 54 0.0 2.0 0.00 0.00 0.00 80 1019.5
20260509191102 55 0.0 0.0 0.00 0.00 0.00 78 1019.6
20260509190100 56 0.0 0.0 0.00 0.00 0.00 77 1019.5
20260509185058 56 0.0 0.0 0.00 0.00 0.00 75 1019.4
20260509184056 57 0.0 0.0 0.00 0.00 0.00 72 1019.3
20260509183054 59 68 0.0 2.0 0.00 0.00 0.00 70 1019.4
20260509182052 60 68 0.0 2.0 0.00 0.00 0.00 68 1019.5
20260509181050 60 0.0 2.0 0.00 0.00 0.00 68 1019.5
20260509180048 62 68 0.0 2.0 0.00 0.00 0.00 68 1019.4
20260509175046 61 0.0 2.0 0.00 0.00 0.00 68 1019.5
20260509174044 61 68 1.0 4.0 0.00 0.00 0.00 69 1019.6
20260509173042 61 74 1.0 4.0 0.00 0.00 0.00 69 1019.5
20260509172040 60 78 2.0 4.0 0.00 0.00 0.00 69 1019.5
20260509171038 61 74 1.0 4.0 0.00 0.00 0.00 69 1019.5
20260509170036 60 74 1.0 4.0 0.00 0.00 0.00 70 1019.5
20260509165034 60 68 2.0 4.0 0.00 0.00 0.00 69 1019.6
20260509164032 60 88 2.0 4.0 0.00 0.00 0.00 69 1019.6
20260509163030 60 71 2.0 4.0 0.00 0.00 0.00 69 1019.8
20260509162027 61 82 2.0 8.0 0.00 0.00 0.00 68 1019.7
20260509161026 61 74 2.0 6.0 0.00 0.00 0.00 68 1019.8
20260509160024 61 68 2.0 4.0 0.00 0.00 0.00 66 1019.8
20260509155022 61 68 1.0 4.0 0.00 0.00 0.00 67 1019.9
20260509154020 61 61 1.0 4.0 0.00 0.00 0.00 68 1020.1
20260509153018 61 69 2.0 4.0 0.00 0.00 0.00 66 1020.2
20260509152016 61 57 1.0 4.0 0.00 0.00 0.00 66 1020.2
20260509151114 61 68 0.0 2.0 0.00 0.00 0.00 66 1020.3
20260509150112 61 70 2.0 7.0 0.00 0.00 0.00 65 1020.3
20260509145150 62 79 2.0 9.0 0.00 0.00 0.00 64 1020.5
20260509144148 64 59 2.0 6.0 0.00 0.00 0.00 62 1020.6
20260509143106 64 68 2.0 6.0 0.00 0.00 0.00 62 1020.7
20260509142103 63 80 3.0 8.0 0.00 0.00 0.00 62 1020.7
20260509141102 63 67 3.0 9.0 0.00 0.00 0.00 62 1020.9
20260509140059 63 50 2.0 7.0 0.00 0.00 0.00 63 1021.1
20260509135058 61 45 2.0 6.0 0.00 0.00 0.00 66 1021.1
20260509134056 61 45 1.0 7.0 0.00 0.00 0.00 68 1021.2
20260509133113 60 45 1.0 4.0 0.00 0.00 0.00 68 1021.2
20260509132051 60 45 1.0 4.0 0.00 0.00 0.00 69 1021.3
20260509131049 60 45 2.0 6.0 0.00 0.00 0.00 67 1021.4
20260509130047 60 39 1.0 4.0 0.00 0.00 0.00 68 1021.5
20260509125045 60 52 2.0 6.0 0.00 0.00 0.00 67 1021.7
20260509124043 60 38 1.0 4.0 0.00 0.00 0.00 63 1021.7
20260509123041 59 45 1.0 4.0 0.00 0.00 0.00 63 1021.8
20260509122039 59 45 1.0 4.0 0.00 0.00 0.00 66 1022.0
20260509121037 59 45 1.0 7.0 0.00 0.00 0.00 67 1021.9
20260509120035 58 45 1.0 4.0 0.00 0.00 0.00 68 1022.0
20260509115033 59 36 1.0 4.0 0.00 0.00 0.00 69 1022.0
20260509114031 59 48 2.0 6.0 0.00 0.00 0.00 67 1022.2
20260509113029 60 46 1.0 6.0 0.00 0.00 0.00 68 1022.2
20260509112027 60 54 2.0 7.0 0.00 0.00 0.00 68 1022.3
20260509111025 60 26 2.0 4.0 0.00 0.00 0.00 68 1022.2
20260509110023 60 30 2.0 4.0 0.00 0.00 0.00 69 1022.3
20260509105021 59 37 2.0 6.0 0.00 0.00 0.00 70 1022.4
20260509104019 58 23 2.0 6.0 0.00 0.00 0.00 70 1022.4
20260509103037 58 23 2.0 4.0 0.00 0.00 0.00 71 1022.4
20260509102035 58 23 1.0 2.0 0.00 0.00 0.00 74 1022.5
20260509101113 58 23 1.0 4.0 0.00 0.00 0.00 74 1022.6
20260509100111 58 23 1.0 4.0 0.00 0.00 0.00 73 1022.4
20260509095109 58 26 2.0 4.0 0.00 0.00 0.00 74 1022.6
20260509094107 58 41 2.0 7.0 0.00 0.00 0.00 74 1022.6
20260509093105 58 20 2.0 4.0 0.00 0.00 0.00 75 1022.6
20260509092103 58 23 0.0 2.0 0.00 0.00 0.00 76 1022.6